Weather History for KMLI - March, 2014

Change the Weather History Date:

Sunday, March 16, 2014

  Actual Average Record
Temperature  
Mean Temperature 26 °F 39 °F  
Max Temperature 32 °F 49 °F 82 °F (1945)
Min Temperature 19 °F 30 °F 0 °F (1900)
Degree Days  
Heating Degree Days 39 26  
Month to date heating degree days 608 468  
Since 1 July heating degree days 6278 5266  
Cooling Degree Days 0 0  
Month to date cooling degree days 0 0  
Year to date cooling degree days 0 0  
Moisture  
Dew Point 18 °F    
Average Humidity 69    
Maximum Humidity 92    
Minimum Humidity 46    
Precipitation  
Precipitation 0.11 in 0.09 in 1.21 in (1919)
Month to date precipitation 0.66 1.42  
Year to date precipitation 4.68 4.51  
Snow  
Snow 1.60 in 0.10 in - ()
Month to date snowfall 9.4 2.5  
Since 1 July snowfall 64.2 29.2  
Snow Depth 2.00 in    
Sea Level Pressure  
Sea Level Pressure 30.27 in    
Wind  
Wind Speed 15 mph (NE)    
Max Wind Speed 25 mph    
Max Gust Speed 35 mph    
Visibility 6 miles    
Events Snow    
T = Trace of Precipitation, MM = Missing Value Source: NWS Daily Summary

Daily Weather History Graph

Daily Weather History Graph

Search for Another Location

Airport or City:

Trip Planner

Search our weather history database for the weather conditions in past years. The results will help you decide how hot, cold, wet, or windy it might be!

Date:

Astronomy

Mar. 16, 2014 Rise Set
Actual Time 7:12 AM CDT 7:09 PM CDT
Civil Twilight 6:44 AM CDT 7:37 PM CDT
Nautical Twilight 6:12 AM CDT 8:09 PM CDT
Astronomical Twilight 5:39 AM CDT 8:42 PM CDT
Moon 7:28 PM CDT (3/16) 6:55 AM CDT (3/16)
Length of Visible Light 12h 52m
Length of Day
11h 57m
Full, 100% of the Moon is Illuminated
Mar 16
Full
Mar 16
Full
Mar 23
Last Quarter
Mar 30
New
Apr 7
First Quarter

Hourly Weather History & Observations

Time (CDT) Temp. Windchill Dew Point Humidity Pressure Visibility Wind Dir Wind Speed Gust Speed Precip Events Conditions
12:48 AM 32.0 °F 23.0 °F 28.4 °F 87% 30.21 in 2.5 mi NE 11.5 mph - 0.00 in Snow Light Snow
12:52 AM 32.0 °F 22.5 °F 28.0 °F 85% 30.22 in 2.0 mi NE 12.7 mph 19.6 mph 0.00 in Snow Light Snow
1:17 AM 32.0 °F 23.6 °F 28.4 °F 87% 30.21 in 1.8 mi NE 10.4 mph - 0.01 in Snow Light Snow
1:30 AM 32.0 °F 21.2 °F 28.4 °F 87% 30.23 in 1.8 mi ENE 16.1 mph - 0.01 in Snow Light Snow
1:48 AM 32.0 °F 21.2 °F 28.4 °F 87% 30.24 in 1.2 mi ENE 16.1 mph - 0.02 in Snow Light Snow
1:52 AM 30.9 °F 19.4 °F 28.0 °F 89% 30.26 in 1.2 mi ENE 17.3 mph - 0.02 in Snow Light Snow
2:00 AM 30.2 °F 18.9 °F 28.4 °F 93% 30.24 in 1.2 mi ENE 16.1 mph - 0.00 in Snow Light Snow
2:31 AM 30.2 °F 18.5 °F 26.6 °F 86% 30.24 in 1.5 mi ENE 17.3 mph 26.5 mph 0.01 in Snow Light Snow
2:52 AM 28.9 °F 16.9 °F 26.1 °F 89% 30.26 in 1.8 mi ENE 17.3 mph - 0.01 in Snow Light Snow
3:13 AM 28.4 °F 14.7 °F 24.8 °F 86% 30.24 in 2.5 mi ENE 21.9 mph 28.8 mph 0.00 in Snow Light Snow
3:22 AM 28.4 °F 16.6 °F 24.8 °F 86% 30.24 in 3.0 mi ENE 16.1 mph - 0.00 in Snow Light Snow
3:40 AM 28.4 °F 15.8 °F 24.8 °F 86% 30.24 in 2.0 mi ENE 18.4 mph 23.0 mph 0.00 in Snow Light Snow
3:50 AM 28.4 °F 16.6 °F 24.8 °F 86% 30.23 in 1.5 mi ENE 16.1 mph 24.2 mph 0.00 in Snow Light Snow
3:52 AM 28.0 °F 15.7 °F 25.0 °F 88% 30.25 in 1.5 mi ENE 17.3 mph 24.2 mph 0.00 in Snow Light Snow
4:22 AM 26.6 °F 12.4 °F 23.0 °F 86% 30.24 in 2.5 mi ENE 21.9 mph 26.5 mph 0.01 in Snow Light Snow
4:37 AM 26.6 °F 13.8 °F 21.2 °F 80% 30.26 in 4.0 mi ENE 17.3 mph 29.9 mph 0.01 in Snow Light Snow
4:52 AM 26.1 °F 14.0 °F 21.0 °F 81% 30.28 in 3.0 mi ENE 15.0 mph - 0.01 in Snow Light Snow
4:57 AM 26.6 °F 14.3 °F 21.2 °F 80% 30.26 in 2.5 mi NE 16.1 mph - 0.00 in Snow Light Snow
5:04 AM 24.8 °F 11.1 °F 21.2 °F 86% 30.26 in 2.5 mi ENE 18.4 mph 28.8 mph 0.00 in Snow Light Snow
5:07 AM 24.8 °F 11.1 °F 21.2 °F 86% 30.26 in 3.0 mi ENE 18.4 mph 28.8 mph 0.00 in Snow Light Snow
5:20 AM 24.8 °F 9.6 °F 19.4 °F 80% 30.26 in 6.0 mi ENE 23.0 mph 28.8 mph 0.00 in Snow Light Snow
5:52 AM 25.0 °F 11.3 °F 19.0 °F 78% 30.29 in 10.0 mi ENE 18.4 mph 27.6 mph 0.00 in   Overcast
6:52 AM 23.0 °F 7.6 °F 16.0 °F 74% 30.31 in 10.0 mi ENE 21.9 mph 29.9 mph N/A   Overcast
7:52 AM 21.9 °F 6.5 °F 14.0 °F 72% 30.32 in 10.0 mi NE 20.7 mph 31.1 mph N/A   Mostly Cloudy
8:07 AM 21.2 °F 6.0 °F 14.0 °F 74% 30.30 in 10.0 mi ENE 19.6 mph 28.8 mph N/A   Scattered Clouds
8:30 AM 21.2 °F 7.3 °F 14.0 °F 74% 30.30 in 10.0 mi NE 16.1 mph - N/A   Mostly Cloudy
8:52 AM 21.0 °F 5.7 °F 12.9 °F 71% 30.34 in 10.0 mi NE 19.6 mph 27.6 mph N/A   Mostly Cloudy
9:52 AM 21.9 °F 7.3 °F 12.9 °F 68% 30.35 in 10.0 mi ENE 18.4 mph 24.2 mph N/A   Mostly Cloudy
10:52 AM 21.9 °F 7.3 °F 12.0 °F 66% 30.37 in 10.0 mi NE 18.4 mph 27.6 mph N/A   Overcast
11:52 AM 23.0 °F 9.6 °F 12.0 °F 63% 30.39 in 9.0 mi NE 16.1 mph 24.2 mph N/A   Overcast
12:52 PM 25.0 °F 14.2 °F 12.9 °F 60% 30.38 in 10.0 mi NNE 11.5 mph 21.9 mph 0.00 in   Scattered Clouds
1:52 PM 27.0 °F 14.3 °F 14.0 °F 58% 30.34 in 10.0 mi NE 17.3 mph 20.7 mph N/A   Clear
2:52 PM 28.0 °F 17.5 °F 12.0 °F 51% 30.30 in 10.0 mi NE 12.7 mph 25.3 mph N/A   Clear
3:52 PM 30.0 °F 18.3 °F 12.9 °F 49% 30.26 in 10.0 mi ENE 17.3 mph 24.2 mph N/A   Clear
4:52 PM 30.0 °F 19.1 °F 12.9 °F 49% 30.24 in 10.0 mi NE 15.0 mph - N/A   Clear
5:52 PM 28.9 °F 18.6 °F 10.0 °F 45% 30.24 in 10.0 mi NE 12.7 mph - N/A   Clear
6:52 PM 27.0 °F 15.6 °F 10.0 °F 49% 30.23 in 10.0 mi ENE 13.8 mph 20.7 mph N/A   Clear
7:52 PM 25.0 °F 15.5 °F 9.0 °F 51% 30.24 in 10.0 mi NE 9.2 mph - N/A   Clear
8:52 PM 24.1 °F 15.2 °F 10.0 °F 55% 30.23 in 10.0 mi NE 8.1 mph - N/A   Clear
9:52 PM 21.9 °F 13.4 °F 9.0 °F 58% 30.22 in 10.0 mi NE 6.9 mph - N/A   Clear
10:52 PM 21.0 °F 14.6 °F 10.0 °F 63% 30.22 in 10.0 mi NE 4.6 mph - N/A   Clear
11:52 PM 19.9 °F 9.3 °F 10.9 °F 68% 30.19 in 10.0 mi East 9.2 mph - N/A   Clear